This is the latest recevied weather packets stored in our database for station/object SV9TNF-52. If no packets are shown the sender has not sent any weather packets the latest 10 day(s).
| Time | Temp. | Humidity | Pressure | Rain* | Wind** | Luminosity | Snow |
|---|---|---|---|---|---|---|---|
| 1788133652 | 22.78° C | 71% | 1021 hPa | 0 mm | 4.47 m/s, 257° | - | - |
| 1788133353 | 22.78° C | 71% | 1021 hPa | 0 mm | 3.13 m/s, 180° | - | - |
| 1788133052 | 22.78° C | 71% | 1021 hPa | 0 mm | 4.02 m/s, 243° | - | - |
| 1788132752 | 22.78° C | 71% | 1021 hPa | 0 mm | 5.81 m/s, 231° | - | - |
| 1788132452 | 22.78° C | 71% | 1021 hPa | 0 mm | 5.81 m/s, 209° | - | - |
| 1788132152 | 22.78° C | 71% | 1021 hPa | 0 mm | 4.92 m/s, 219° | - | - |
| 1788131852 | 22.78° C | 71% | 1021 hPa | 0 mm | 4.47 m/s, 221° | - | - |
| 1788131552 | 22.78° C | 72% | 1021 hPa | 0 mm | 5.36 m/s, 175° | - | - |
| 1788131252 | 22.78° C | 71% | 1021 hPa | 0 mm | 4.02 m/s, 222° | - | - |
| 1788130952 | 22.78° C | 71% | 1021 hPa | 0 mm | 6.26 m/s, 216° | - | - |
| 1788130667 | 22.22° C | 71% | 1021 hPa | 0 mm | 5.81 m/s, 185° | - | - |
| 1788130351 | 22.78° C | 71% | 1021 hPa | 0 mm | 4.92 m/s, 217° | - | - |
| 1788130051 | 22.78° C | 72% | 1021 hPa | 0 mm | 4.92 m/s, 198° | - | - |
| 1788129751 | 23.33° C | 72% | 1021 hPa | 0 mm | 4.47 m/s, 234° | - | - |
| 1788129452 | 22.78° C | 72% | 1021 hPa | 0 mm | 4.02 m/s, 171° | - | - |
| 1788129151 | 22.78° C | 72% | 1021.7 hPa | 0 mm | 5.36 m/s, 223° | - | - |
| 1788128851 | 22.78° C | 72% | 1021.7 hPa | 0 mm | 5.36 m/s, 186° | - | - |
| 1788128551 | 22.78° C | 73% | 1021.7 hPa | 0 mm | 6.71 m/s, 219° | - | - |
| 1788128251 | 22.78° C | 72% | 1021.7 hPa | 0 mm | 7.6 m/s, 204° | - | - |
| 1788127951 | 23.33° C | 72% | 1021.7 hPa | 0 mm | 4.02 m/s, 190° | - | - |
| 1788127651 | 23.33° C | 73% | 1021.7 hPa | 0 mm | 4.02 m/s, 181° | - | - |
| 1788127351 | 23.33° C | 72% | 1021.7 hPa | 0 mm | 2.68 m/s, 244° | - | - |
| 1788127051 | 23.33° C | 72% | 1022 hPa | 0 mm | 4.02 m/s, 190° | - | - |
| 1788126750 | 23.33° C | 72% | 1022 hPa | 0 mm | 5.36 m/s, 211° | - | - |
| 1788126451 | 23.33° C | 72% | 1021.7 hPa | 0 mm | 4.47 m/s, 196° | - | - |
* Rain latest hour (hover to see other rain measurements)
** Current wind speed in m/s (hover to see current wind gust speed)